Beidou DW 12

operational
NORAD ID: 38250 Int'l Des: 2012-018 Owner: CNSA Country: CN Constellation: BeiDou
MEOCIRCULAR

Über Beidou DW 12

Beschreibung wird geladen...

Live-Position

3D-Globus wird geladen...

Nächste Überflüge

Höhenverlauf

Altitude vs Time

uPlot chart will show altitude changes over time

Zweizeiliger Elementsatz

1 38250U 12018A 25347.93810025 -.00000096 00000-0 00000-0 0 9995
2 38250 55.9188 311.1166 0024291 274.3199 85.3911 1.86229879 92491
Epoch: 13. Dez. 2025 • Age: 77 hours

Aktueller Status

Höhe 21510.6 km
Geschwindigkeit 3.78 km/s
Subsatellitenpunkt -10.32°S, 167.05°E
Startdatum 29. Apr. 2012
Alter 13.6 years
Typ navigation

Startgruppe

Unknown Vehicle • BeiDou Launch 16 • 2 satellites

Technische Details

Klassifizierung Payload
Masse 2300.00 kg
Trockenmasse 1300.00 kg
Gesamtmasse 2300.00 kg
Länge 3.00 m
Durchmesser 1.70 m
Spannweite 18.00 m
Form Box + 2 Pan
Hersteller CAST
Bus-Typ DFH-3
Phasenstatus In Orbit
Besitzer/Staat CNSA/CN

Große Konstellationen

Loading constellations...